CST,Max TemperatureF,Mean TemperatureF,Min TemperatureF,Max Dew PointF,MeanDew PointF,Min DewpointF,Max Humidity, Mean Humidity, Min Humidity, Max Sea Level PressureIn, Mean Sea Level PressureIn, Min Sea Level PressureIn, Max VisibilityMiles, Mean VisibilityMiles, Min VisibilityMiles, Max Wind SpeedMPH, Mean Wind SpeedMPH, Max Gust SpeedMPH,PrecipitationIn, CloudCover, Events, WindDirDegrees
2012-12-1,55,47,39,52,42,34,100,86,71,30.16,29.98,29.82,10,4,1,10,6,,0.36,8,Rain,134
2012-12-2,55,44,33,52,43,34,100,86,71,30.07,29.95,29.82,7,4,0,10,6,,0.00,7,Fog,289
2012-12-3,62,52,42,61,51,41,100,92,71,30.05,29.84,29.70,10,4,0,16,6,28,0.00,7,Fog-Rain,170
2012-12-4,53,40,28,41,28,16,76,59,38,30.29,30.06,29.89,10,10,10,24,11,30,0.00,0,,278
2012-12-5,33,27,21,28,21,14,87,72,59,30.43,30.34,30.19,10,10,10,10,5,,0.00,2,,82
2012-12-6,44,38,32,34,31,28,93,75,61,30.18,29.97,29.85,10,10,10,14,7,18,0.00,5,,196
2012-12-7,41,37,33,34,30,27,87,78,57,29.97,29.93,29.89,10,10,10,12,7,17,0.00,5,,358
2012-12-8,33,32,30,30,29,27,93,85,80,30.13,30.02,29.91,10,10,10,10,5,,0.00,6,Snow,6
2012-12-9,35,34,32,34,31,28,100,91,75,30.10,29.89,29.65,10,4,0,12,8,20,0.15,8,Rain-Snow,72
2012-12-10,32,29,26,32,26,23,100,86,75,29.91,29.79,29.65,10,9,2,10,5,16,0.00,7,Snow,316
2012-12-11,32,28,23,27,22,18,93,74,55,30.05,29.93,29.88,10,10,5,18,6,24,0.00,7,Snow,219
2012-12-12,42,32,23,28,25,21,93,69,49,30.20,30.15,30.05,10,10,7,18,7,23,0.00,2,,201
2012-12-13,44,36,28,28,25,23,100,65,46,30.18,30.10,30.03,10,10,10,16,10,22,0.00,0,,206
2012-12-14,44,34,23,36,30,23,100,88,61,30.20,30.12,30.02,10,8,2,9,2,,0.00,1,,92
2012-12-15,44,40,35,45,40,34,100,92,76,30.00,29.72,29.52,10,6,2,16,6,21,0.18,7,Rain,135
2012-12-16,44,40,35,45,38,32,100,91,81,29.68,29.58,29.50,10,7,0,16,6,21,0.04,8,Rain,266
2012-12-17,35,32,28,32,27,23,93,83,75,29.72,29.69,29.67,10,10,7,10,7,16,0.00,8,,292
2012-12-18,32,29,26,32,27,23,100,90,80,29.81,29.70,29.64,10,6,0,8,3,,0.13,8,Snow,321
2012-12-19,32,28,24,32,28,25,100,91,86,30.06,29.98,29.82,7,5,1,8,3,,0.01,7,Snow,322
2012-12-20,35,34,32,34,33,30,100,97,93,29.91,29.41,29.16,7,2,0,20,11,28,0.84,8,Rain-Snow,20
2012-12-21,32,24,17,30,21,12,93,82,74,30.14,29.88,29.46,10,9,2,16,12,26,0.00,5,Snow,300
2012-12-22,28,20,12,19,13,9,93,75,55,30.15,30.06,29.93,10,10,10,9,5,,0.00,0,,252
2012-12-23,26,19,12,21,15,9,93,83,68,30.05,29.99,29.90,10,9,4,8,4,,0.00,3,,331
2012-12-24,28,21,14,23,19,12,93,85,80,30.10,29.97,29.90,10,10,10,10,3,,0.00,8,Snow,326
2012-12-25,24,18,12,21,14,9,93,79,63,30.34,30.27,30.11,10,10,10,9,4,,0.00,5,,327
2012-12-26,30,28,26,23,21,19,80,73,64,30.26,30.14,30.07,10,10,10,18,11,26,0.00,8,,15
2012-12-27,28,26,24,21,20,19,86,75,69,30.19,30.15,30.10,10,10,7,13,8,18,0.00,8,,342
2012-12-28,32,29,26,30,27,21,100,89,80,30.10,29.99,29.86,10,6,1,10,2,,0.01,8,Snow,68
2012-12-29,30,26,19,28,23,14,100,89,80,30.14,29.96,29.85,10,6,1,16,6,22,0.00,8,Snow,286
2012-12-30,32,21,12,23,13,9,93,79,63,30.25,30.14,29.94,10,9,2,13,8,20,0.00,2,Snow,229
2012-12-31,32,21,8,23,16,3,86,74,67,30.13,30.00,29.90,10,10,7,16,11,21,0.00,2,,281